"Pseudo-MPEC" for P12payU

Created 2026 Aug 14 5:35:14 UT using Find_Orb

Click here for an explanation of pseudo-MPECs

 
 Astrometry: 
     P12payU*0C2026 08 11.50829922 37 04.150+02 22 29.70   ~8BEo 21.50wXNEOCPF51
     P12payU 0C2026 08 11.52175822 37 05.615+02 22 16.85   ~8BEo 22.43wXNEOCPF51
     P12payU 0C2026 08 11.53509322 37 07.031+02 22 03.58   ~8BEo 22.01wXNEOCPF51
     P12payU 0C2026 08 11.62293422 37 16.526+02 20 38.50   ~8BL5 21.64GVNEOCPF51
     P12payU 0C2026 08 11.62357822 37 16.584+02 20 37.92   ~8BL5 21.70GVNEOCPF51
     P12payU KC2026 08 12.23683922 38 28.43 +02 10 27.9    ~8C6Z 21.3 GVNEOCPH21
     P12payU KC2026 08 12.24254122 38 29.06 +02 10 22.2    ~8C6Z 21.5 GVNEOCPH21
     P12payU KC2026 08 12.24681922 38 29.51 +02 10 18.5    ~8C6Z 21.4 GVNEOCPH21
     P12payU KC2026 08 12.25176322 38 30.02 +02 10 13.2    ~8C6Z 21.5 GVNEOCPH21

Station data:
(F51) Pan-STARRS 1, Haleakala  (N20.707234 W156.255910)  US/Hawaii.
   Observers J. Herman, T. Lowe, P. Minguez, A. Schultz, I. Smith. Measurers
   K. Chambers, T. de Boer, J. Fairlamb, H. Gao, M. Huber, C.-C. Lin, E.
   Magnier, Y. Ramanjooloo, R. Wainscoat, R. Weryk. 1.8-m Ritchey-Chrétien +
   CCD.
(H21) Astronomical Research Observatory, Westfield  (N39.483054 W87.968270)
   US/Illinois.  Observer R. Holmes. Measurers S. Foglia, L. Buzzi, T.
   Linder, R. Holmes. 0.40-m f/5.32 astrograph + CCD.

Orbital elements:  P12payU
   Perihelion 2026 Sep 6.150140 +/- 15.2 TT =  3:36:12.1 (JD 2461289.650140)
Epoch 2026 Aug 12.0 TT = JDT 2461264.5   Earth MOID: 0.3724   Ju: 0.6487
M 357.597825144 +/- 1.3             Ma: 0.0031                   AutoNEOCP
n   0.095513377 +/- 0.0101          Peri.  185.130745 +/- 13
a   4.739798889 +/- 0.334           Node   159.882539 +/- 0.9
e   0.70884768 +/- 0.0225           Incl.   12.232726 +/- 1.2
P  10.31905                H 21.96  G  0.15   U  9.7
q 1.380003434 +/- 0.0284    Q 8.099594345 +/- 0.675       (J2000 ecliptic)
From 9 observations 2026 Aug. 11-12 (17.8 hr); mean residual 0".19
Residuals in arcseconds: 
260811 F51  .21-  .00     260811 F51  .08+  .01+    260812 H21  .25+  .21-    
260811 F51  .20+  .15+    260811 F51  .11-  .06+    260812 H21  .02+  .36+    
260811 F51  .04+  .22-    260812 H21  .12+  .20-    260812 H21  .39-  .00     

Ephemerides (geocentric):
Date (UTC) HH   RA             Dec           delta  r     elong  mag " sig PA
---- --------  ------------   ------------  ------ ------ -----  --- --------
2026 08 14 06  22 42 20.721   +01 35 34.53  .41988 1.4085 156.7 21.7 39.5 118
2026 08 14 07  22 42 25.558   +01 34 48.96  .41971 1.4084 156.7 21.7 40.9 118
2026 08 14 08  22 42 30.396   +01 34 03.32  .41955 1.4083 156.7 21.7 42.4 118
2026 08 14 09  22 42 35.235   +01 33 17.60  .41938 1.4081 156.8 21.7 43.9 118
2026 08 14 10  22 42 40.075   +01 32 31.79  .41922 1.4080 156.8 21.7 45.4 118
2026 08 14 11  22 42 44.915   +01 31 45.91  .41905 1.4079 156.8 21.7 46.9 118
2026 08 14 12  22 42 49.757   +01 30 59.95  .41889 1.4078 156.9 21.7 48.5 118
2026 08 14 13  22 42 54.599   +01 30 13.91  .41872 1.4077 156.9 21.7 50.1 118
2026 08 14 14  22 42 59.442   +01 29 27.79  .41856 1.4076 156.9 21.7 51.7 118
2026 08 14 15  22 43 04.286   +01 28 41.60  .41839 1.4075 157.0 21.7 53.4 118
2026 08 14 16  22 43 09.131   +01 27 55.32  .41823 1.4074 157.0 21.7 55.1 118
2026 08 14 17  22 43 13.977   +01 27 08.96  .41807 1.4073 157.0 21.7 56.8 118
2026 08 14 18  22 43 18.823   +01 26 22.53  .41790 1.4072 157.1 21.7 58.5 118
2026 08 14 19  22 43 23.670   +01 25 36.01  .41774 1.4071 157.1 21.7 60.3 118
2026 08 14 20  22 43 28.518   +01 24 49.42  .41758 1.4070 157.1 21.7 62.1 118
2026 08 14 21  22 43 33.367   +01 24 02.75  .41742 1.4069 157.2 21.7 63.9 118
2026 08 14 22  22 43 38.217   +01 23 16.00  .41726 1.4068 157.2 21.7 65.7 118
2026 08 14 23  22 43 43.068   +01 22 29.17  .41709 1.4067 157.2 21.7 67.6 118
2026 08 15 00  22 43 47.919   +01 21 42.27  .41693 1.4066 157.2 21.7 69.5 118
2026 08 15 01  22 43 52.771   +01 20 55.28  .41677 1.4065 157.3 21.7 71.4 118
2026 08 15 02  22 43 57.624   +01 20 08.22  .41661 1.4064 157.3 21.7 73.3 118
2026 08 15 03  22 44 02.478   +01 19 21.07  .41645 1.4064 157.3 21.7 75.3 118
2026 08 15 04  22 44 07.333   +01 18 33.85  .41629 1.4063 157.4 21.7 77.3 118
2026 08 15 05  22 44 12.189   +01 17 46.55  .41613 1.4062 157.4 21.7 79.4 118
2026 08 15 06  22 44 17.045   +01 16 59.18  .41597 1.4061 157.4 21.7 81.4 118
2026 08 15 07  22 44 21.902   +01 16 11.72  .41581 1.4060 157.5 21.7 83.5 118
2026 08 15 08  22 44 26.760   +01 15 24.19  .41565 1.4059 157.5 21.7 85.6 119
2026 08 15 09  22 44 31.619   +01 14 36.58  .41550 1.4058 157.5 21.7 87.8 119
2026 08 15 10  22 44 36.478   +01 13 48.89  .41534 1.4057 157.6 21.7 90.0 119
2026 08 15 11  22 44 41.339   +01 13 01.12  .41518 1.4056 157.6 21.7 92.2 119
2026 08 15 12  22 44 46.200   +01 12 13.27  .41502 1.4055 157.6 21.7 94.4 119
2026 08 15 13  22 44 51.062   +01 11 25.35  .41486 1.4054 157.7 21.7 96.7 119
2026 08 15 14  22 44 55.925   +01 10 37.35  .41471 1.4053 157.7 21.7 98.9 119
2026 08 15 15  22 45 00.788   +01 09 49.27  .41455 1.4052 157.7 21.7  101 119
2026 08 15 16  22 45 05.653   +01 09 01.11  .41439 1.4051 157.7 21.7  104 119
2026 08 15 17  22 45 10.518   +01 08 12.88  .41424 1.4050 157.8 21.7  106 119
2026 08 15 18  22 45 15.384   +01 07 24.57  .41408 1.4049 157.8 21.6  108 119
2026 08 15 19  22 45 20.251   +01 06 36.18  .41393 1.4048 157.8 21.6  111 119
2026 08 15 20  22 45 25.119   +01 05 47.72  .41377 1.4047 157.9 21.6  113 119
2026 08 15 21  22 45 29.987   +01 04 59.17  .41361 1.4046 157.9 21.6  116 119
2026 08 15 22  22 45 34.856   +01 04 10.55  .41346 1.4045 157.9 21.6  118 119
2026 08 15 23  22 45 39.726   +01 03 21.85  .41331 1.4044 158.0 21.6  121 119
2026 08 16 00  22 45 44.597   +01 02 33.08  .41315 1.4043 158.0 21.6  123 119
2026 08 16 01  22 45 49.469   +01 01 44.23  .41300 1.4042 158.0 21.6  126 119
2026 08 16 02  22 45 54.341   +01 00 55.30  .41284 1.4041 158.1 21.6  129 119
2026 08 16 03  22 45 59.214   +01 00 06.29  .41269 1.4040 158.1 21.6  131 119
2026 08 16 04  22 46 04.088   +00 59 17.21  .41254 1.4039 158.1 21.6  134 119
2026 08 16 05  22 46 08.963   +00 58 28.05  .41238 1.4039 158.2 21.6  137 119